Rochelle, IL

8:37 AM CST on November 17, 2019 (GMT -0600)
Rochelle

Weather History for KRPJ - September, 2019

Change the Weather History Date:

Tuesday, September 3, 2019

  Actual Average (KRFD) Record (KRFD)
Temperature  
Mean Temperature 72 °F -  
Max Temperature 82 °F 79 °F 100 °F (1913)
Min Temperature 63 °F 57 °F 43 °F (1908)
Cooling Degree Days 8    
Growing Degree Days 22 (Base 50)    
Moisture  
Dew Point 67 °F    
Average Humidity 92    
Maximum Humidity 100    
Minimum Humidity 70    
Precipitation  
Precipitation 1.53 in - - ()
Sea Level Pressure  
Sea Level Pressure 29.91 in    
Wind  
Wind Speed 8 mph ()    
Max Wind Speed 26 mph    
Max Gust Speed 39 mph    
Visibility 9.1 miles    
Events Rain , Thunderstorm    
Averages and records for this station are not official NWS values.
T = Trace of Precipitation, MM = Missing Value Source: Averaged Metar Reports

Daily Weather History Graph

Daily Weather History Graph

Search for Another Location

Airport or City:

Astronomy

Sep. 03, 2019 Rise Set
Actual Time 6:23 AM CDT 7:26 PM CDT
Civil Twilight 5:55 AM CDT 7:55 PM CDT
Nautical Twilight 5:21 AM CDT 8:29 PM CDT
Astronomical Twilight 4:45 AM CDT 9:04 PM CDT
Moon 11:21 AM CDT (9/3) 10:18 PM CDT (9/3)
Length of Visible Light 13h 59m
Length of Day
13h 02m
Waxing Crescent, 25% of the Moon is Illuminated
Sep 3
Waxing Crescent
Sep 5
First Quarter
Sep 13
Full
Sep 21
Last Quarter
Sep 28
New

Hourly Weather History & Observations

Time (CDT) Temp. Heat Index Dew Point Humidity Pressure Visibility Wind Dir Wind Speed Gust Speed Precip Events Conditions
12:15 AM 65.1 °F - 64.6 °F 98% 30.01 in 10.0 mi South 5.8 mph - N/A   Clear
12:35 AM 65.3 °F - 64.9 °F 99% 30.01 in 10.0 mi South 5.8 mph - N/A   Clear
12:55 AM 65.1 °F - 64.8 °F 99% 30.01 in 10.0 mi South 4.6 mph - N/A   Clear
1:15 AM 65.3 °F - 65.3 °F 100% 30.01 in 10.0 mi South 5.8 mph - N/A   Scattered Clouds
1:35 AM 66.0 °F - 65.5 °F 98% 30.00 in 10.0 mi South 5.8 mph - N/A   Scattered Clouds
1:55 AM 65.8 °F - 65.5 °F 99% 30.00 in 10.0 mi South 5.8 mph - N/A   Scattered Clouds
2:15 AM 65.3 °F - 65.1 °F 99% 30.00 in 10.0 mi South 5.8 mph - N/A   Clear
2:35 AM 65.3 °F - 65.3 °F 100% 29.99 in 10.0 mi South 8.1 mph - N/A   Clear
2:55 AM 65.5 °F - 65.3 °F 99% 29.99 in 10.0 mi South 6.9 mph - N/A   Clear
3:15 AM 65.1 °F - 64.6 °F 98% 29.97 in 10.0 mi SSE 5.8 mph - N/A   Clear
3:35 AM 64.0 °F - 63.9 °F 99% 29.96 in 10.0 mi SSE 6.9 mph - N/A   Clear
3:55 AM 63.9 °F - 63.7 °F 99% 29.94 in 10.0 mi SSE 4.6 mph - N/A   Scattered Clouds
4:15 AM 64.2 °F - 64.0 °F 99% 29.94 in 10.0 mi SSE 6.9 mph - N/A   Scattered Clouds
4:35 AM 64.8 °F - 64.4 °F 99% 29.95 in 10.0 mi South 5.8 mph - N/A   Scattered Clouds
4:55 AM 64.8 °F - 64.4 °F 99% 29.98 in 10.0 mi Calm Calm - N/A Thunderstorm Scattered Clouds
5:15 AM 66.2 °F - 65.3 °F 97% 30.01 in 10.0 mi Calm Calm - N/A Rain Rain
5:35 AM 65.3 °F - 65.3 °F 100% 29.99 in 7.0 mi East 4.6 mph - 0.01 in Rain , Thunderstorm Rain
5:55 AM 64.8 °F - 64.6 °F 99% 29.96 in 5.0 mi SE 9.2 mph 16.1 mph 0.04 in Rain , Thunderstorm Heavy Thunderstorms and Rain
6:15 AM 64.9 °F - 64.9 °F 100% 29.94 in 7.0 mi East 10.4 mph - N/A Rain , Thunderstorm Thunderstorms and Rain
6:35 AM 64.8 °F - 64.6 °F 99% 29.95 in 7.0 mi East 8.1 mph - 0.01 in Rain , Thunderstorm Light Thunderstorms and Rain
6:55 AM 64.9 °F - 64.8 °F 99% 29.94 in 10.0 mi ESE 9.2 mph 17.3 mph 0.01 in Thunderstorm Overcast
7:15 AM 65.3 °F - 64.9 °F 99% 29.91 in 7.0 mi East 17.3 mph 24.2 mph 0.02 in Rain , Thunderstorm Light Thunderstorms and Rain
7:35 AM 66.2 °F - 65.3 °F 97% 29.89 in 7.0 mi ENE 24.2 mph 39.1 mph 0.05 in Rain , Thunderstorm Light Thunderstorms and Rain
7:55 AM 65.5 °F - 65.3 °F 99% 29.98 in 0.5 mi NE 26.5 mph 35.7 mph 0.48 in Rain , Thunderstorm Heavy Thunderstorms and Rain
8:15 AM 64.4 °F - 64.4 °F 100% 29.94 in 1.2 mi ESE 20.7 mph 28.8 mph 0.52 in Rain , Thunderstorm Heavy Thunderstorms and Rain
8:35 AM 66.0 °F - 66.0 °F 100% 29.93 in 4.0 mi SE 18.4 mph 28.8 mph 0.85 in Rain , Thunderstorm Light Thunderstorms and Rain
8:55 AM 67.1 °F - 67.1 °F 100% 29.90 in 7.0 mi SSE 18.4 mph 27.6 mph 0.86 in Rain , Thunderstorm Light Thunderstorms and Rain
9:15 AM 66.6 °F - 66.6 °F 100% 29.91 in 4.0 mi South 17.3 mph 24.2 mph 0.03 in Rain , Thunderstorm Light Thunderstorms and Rain
9:35 AM 66.7 °F - 66.6 °F 99% 29.91 in 10.0 mi South 16.1 mph 20.7 mph 0.03 in Thunderstorm Overcast
9:55 AM 66.2 °F - 66.2 °F 100% 29.92 in 7.0 mi South 10.4 mph 17.3 mph 0.03 in Rain Rain
10:15 AM 66.2 °F - 66.2 °F 100% 29.89 in 3.0 mi South 11.5 mph 21.9 mph 0.05 in Rain , Thunderstorm Heavy Thunderstorms and Rain
10:35 AM 67.1 °F - 67.1 °F 100% 29.89 in 10.0 mi South 13.8 mph 19.6 mph 0.11 in   Overcast
10:55 AM 68.4 °F - 67.8 °F 98% 29.89 in 10.0 mi South 13.8 mph 18.4 mph 0.11 in   Overcast
11:15 AM 68.0 °F - 67.3 °F 98% 29.89 in 10.0 mi South 13.8 mph 20.7 mph N/A   Overcast
11:35 AM 68.9 °F - 68.0 °F 97% 29.88 in 10.0 mi South 13.8 mph 19.6 mph N/A   Overcast
11:55 AM 69.8 °F - 68.4 °F 95% 29.87 in 10.0 mi South 13.8 mph 18.4 mph N/A   Overcast
12:15 PM 70.0 °F - 68.4 °F 95% 29.86 in 10.0 mi South 15.0 mph 19.6 mph N/A   Overcast
12:40 PM 70.7 °F - 68.9 °F 94% 29.87 in 10.0 mi South 11.5 mph 20.7 mph N/A   Overcast
12:55 PM 71.1 °F - 69.3 °F 94% 29.86 in 10.0 mi South 12.7 mph 17.3 mph N/A   Overcast
1:15 PM 72.5 °F - 70.0 °F 92% 29.86 in 10.0 mi South 12.7 mph - N/A   Overcast
1:35 PM 73.6 °F - 70.9 °F 91% 29.87 in 10.0 mi SSW 13.8 mph 18.4 mph N/A   Overcast
1:55 PM 73.6 °F - 71.6 °F 93% 29.90 in - WSW 6.9 mph - N/A   Unknown
2:15 PM 73.9 °F - 72.0 °F 93% 29.90 in 10.0 mi SW 5.8 mph - N/A   Overcast
2:35 PM 75.4 °F - 73.2 °F 93% 29.89 in 10.0 mi SSW 4.6 mph - N/A   Overcast
2:55 PM 77.0 °F - 74.3 °F 91% 29.85 in 10.0 mi South 8.1 mph - N/A   Scattered Clouds
3:15 PM 77.0 °F - 74.5 °F 92% 29.81 in 10.0 mi SSW 15.0 mph 20.7 mph N/A   Clear
3:35 PM 77.2 °F - 74.8 °F 92% 29.81 in 10.0 mi SW 10.4 mph 18.4 mph N/A   Clear
3:55 PM 79.0 °F - 75.6 °F 89% 29.82 in 10.0 mi SW 8.1 mph - N/A   Clear
4:15 PM 81.0 °F 87.3 °F 76.1 °F 85% 29.82 in 10.0 mi WSW 13.8 mph - N/A   Clear
4:35 PM 81.5 °F 88.5 °F 76.1 °F 84% 29.80 in 10.0 mi SW 10.4 mph 16.1 mph N/A   Clear
4:55 PM 81.5 °F 88.7 °F 76.5 °F 85% 29.79 in 10.0 mi SW 6.9 mph - N/A   Clear
5:15 PM 82.0 °F 87.7 °F 73.6 °F 75% 29.79 in 10.0 mi WSW 13.8 mph 23.0 mph N/A   Clear
5:35 PM 81.3 °F 87.6 °F 75.2 °F 82% 29.80 in 10.0 mi West 11.5 mph - N/A   Clear
5:55 PM 81.3 °F 87.4 °F 75.0 °F 81% 29.81 in 10.0 mi West 9.2 mph - N/A   Mostly Cloudy
6:20 PM 80.1 °F 83.0 °F 69.6 °F 70% 29.83 in 10.0 mi West 17.3 mph 25.3 mph N/A   Scattered Clouds
6:35 PM 78.1 °F - 69.3 °F 74% 29.83 in 10.0 mi West 13.8 mph - N/A   Clear
6:55 PM 76.3 °F - 70.0 °F 81% 29.84 in 10.0 mi West 11.5 mph - N/A   Clear
7:15 PM 76.3 °F - 68.5 °F 77% 29.85 in 10.0 mi West 12.7 mph 20.7 mph N/A   Clear
7:35 PM 75.2 °F - 68.5 °F 80% 29.86 in 10.0 mi West 10.4 mph - N/A   Clear
7:55 PM 73.2 °F - 68.7 °F 86% 29.88 in 10.0 mi West 10.4 mph - N/A   Clear
8:15 PM 71.8 °F - 67.3 °F 86% 29.89 in 10.0 mi West 9.2 mph - N/A   Clear
8:35 PM 70.7 °F - 65.5 °F 83% 29.89 in 10.0 mi West 9.2 mph - N/A   Clear
8:55 PM 68.9 °F - 64.6 °F 86% 29.90 in 10.0 mi West 5.8 mph - N/A   Clear
9:15 PM 68.0 °F - 64.4 °F 88% 29.91 in 10.0 mi WNW 5.8 mph - N/A   Scattered Clouds
9:35 PM 68.5 °F - 63.9 °F 85% 29.92 in 10.0 mi WNW 6.9 mph - N/A   Scattered Clouds
9:55 PM 69.1 °F - 62.4 °F 79% 29.92 in 10.0 mi WNW 6.9 mph - N/A   Clear
10:15 PM 68.0 °F - 61.3 °F 79% 29.93 in 10.0 mi NW 6.9 mph - N/A   Clear
10:35 PM 67.3 °F - 60.8 °F 80% 29.93 in 10.0 mi WNW 6.9 mph - N/A   Clear
10:55 PM 66.4 °F - 60.6 °F 82% 29.94 in 10.0 mi NW 5.8 mph - N/A   Clear
11:15 PM 66.0 °F - 59.9 °F 81% 29.95 in 10.0 mi WNW 5.8 mph - N/A   Clear
11:35 PM 63.0 °F - 59.5 °F 89% 29.95 in 10.0 mi WNW 5.8 mph - N/A   Clear
11:55 PM 64.9 °F - 58.8 °F 81% 29.96 in 10.0 mi WNW 5.8 mph - N/A   Clear